Back to catalog

SL-14 DEB

AlivePO
NORAD 25226·DEBRIS·🇷🇺 Russia

Launched Aug 18, 1987 from Plesetsk Cosmodrome

Loading…

Next Passes (next 24 hours)

TLE

FreshSource: Space-Track

Epoch: Sep 14, 2026, 13:04 UTC

1 25226U 87068BD  26257.54455495  .00003004  00000-0  13260-2 0  9990
2 25226  82.5105  96.1093 0049677 275.2079  84.3434 14.22419567450863

Track SL-14 DEB in real time with AllMySat

Download on the App Store